Tracking 35280 objects as of 7-Sep-2026
HD Live streaming from Space Station
objects crossing your sky now

SL-12 R/B(2)

Track SL-12 R/B(2) now!


NORAD ID: 26855
Int'l Code: 2001-025C
Launch date: June 16, 2001
Source: Commonwealth of Independent States (former USSR) (CIS)
Launch site: TYURATAM MISSILE AND SPACE COMPLEX (TTMTR)

Note: This is a ROCKET BODY
Your satellite tracking list
Your tracking list is empty




NASA's NSSDC Master Catalog

Two Line Element Set (TLE):
1 26855U 01025C   26243.24110485 -.00000081  00000-0  00000+0 0  9995
2 26855  15.2002  95.8247 4988976 283.5879 312.2461  1.84790175170162
Source of the keplerian elements: AFSPC